Preview of NWS' New Version of Forecast
This preview is not operational and should not be used for support decisions.

Regional Weather Roundup (RWR)

Issued by National Weather Service (NWS)

                            
000
ASUS43 KMKX 190059
RWRWI 

WISCONSIN REGIONAL WEATHER ROUNDUP
NATIONAL WEATHER SERVICE MILWAUKEE/SULLIVAN WI
700 PM CST MON FEB 18 2019

NOTE: "FAIR" INDICATES FEW OR NO CLOUDS BELOW 12,000 FEET WITH NO
SIGNIFICANT WEATHER AND/OR OBSTRUCTIONS TO VISIBILITY.

WIZ001-002-006>008-014>016-023>028-190200-
NORTHWEST WISCONSIN
  
CITY           SKY/WX    TMP DP  RH WIND       PRES   REMARKS
SUPERIOR ARPT  FAIR      10  -1  60 CALM      30.49R                  
ASHLAND        FAIR       1  -4  79 CALM      30.49R                  
HAYWARD        FAIR       5   0  79 CALM      30.45R                  
SIREN          FAIR       8   1  71 SW3       30.49R                  
CUMBERLAND     FAIR      12   0  57 W5        30.45R WCI   4          
RICE LAKE      FAIR      12   2  64 SW3       30.48R                  
CHETEK         FAIR       8   1  76 CALM      30.48R                  
LADYSMITH      FAIR      10   0  62 W6        30.46R WCI   1          
EAU CLAIRE     NOT AVBL                                               
MENOMONIE      FAIR      10   1  67 CALM      30.50R                  
NEW RICHMOND   FAIR       6   0  76 CALM      30.49R                  
OSCEOLA        FAIR       7   2  80 CALM      30.52R                  
$$
 
WIZ003>005-009-010-017-018-190200-
NORTH CENTRAL WISCONSIN
  
CITY           SKY/WX    TMP DP  RH WIND       PRES   REMARKS
MANITOWISH WTR NOT AVBL                                               
ARBOR VITAE    FAIR       7   4  87 CALM      30.40R                  
WOODRUFF       FAIR       7   4  87 CALM      30.40R                  
RHINELANDER    FAIR       6  -3  66 CALM      30.39R                  
EAGLE RIVER    FAIR       3  -1  81 CALM      30.39R                  
LAND O LAKES   FAIR       3   1  90 CALM      30.41S                  
PHILLIPS       FAIR       8   0  70 CALM      30.40R                  
TOMAHAWK       FAIR       7  -1  68 CALM      30.41R                  
MEDFORD        FAIR      10   0  63 W5        30.42R WCI   2          
MERRILL        FAIR      13   4  65 CALM      30.43R                  
$$
 
WIZ029-030-035-036-043>047-190200-
CENTRAL WISCONSIN
  
CITY           SKY/WX    TMP DP  RH WIND       PRES   REMARKS
WAUSAU         FAIR      14   3  61 SW3       30.43R                  
MOSINEE        NOT AVBL                                               
MARSHFIELD     FAIR      10  -1  61 NW6       30.44R WCI   0          
STEVENS POINT  FAIR       9   2  71 CALM      30.45R                  
WAUPACA        FAIR      17   0  47 W3        30.47R                  
WAUTOMA        FAIR       9   3  77 CALM      30.48R                  
WISC RAPIDS    FAIR      10  -2  58 NW3       30.47R                  
CAMP DOUGLAS   FAIR      11   3  71 W6        30.47R WCI   1          
$$
 
WIZ011>013-019>022-031-037>040-048>050-190200-
NORTHEAST WISCONSIN
  
CITY           SKY/WX    TMP DP  RH WIND       PRES   REMARKS
ANTIGO         FAIR       3  -4  72 NE3       30.41R                  
SHAWANO        FAIR      12  -3  50 CALM      30.45R                  
OCONTO         FAIR       9   4  80 CALM      30.47R                  
STURGEON BAY   FAIR       8   0  69 CALM      30.45                   
GREEN BAY      FAIR      18   6  59 S5        30.48R WCI  11          
MANITOWOC      FAIR       9   3  77 CALM      30.49R                  
APPLETON       CLEAR     14   1  57 VRB5      30.45R WCI   6          
CLINTONVILLE   FAIR      11   3  68 CALM      30.46R                  
OSHKOSH        FAIR      12   4  70 S3        30.47R                  
$$
 
WIZ032>034-041-042-053>061-190200-
SOUTHWEST WISCONSIN
  
CITY           SKY/WX    TMP DP  RH WIND       PRES   REMARKS
LA CROSSE      FAIR       8   2  76 NW3       30.51R                  
SPARTA         FAIR      14   7  75 CALM      30.50R                  
VIROQUA        FAIR      13   8  78 CALM      30.46R                  
BOSCOBEL       FAIR      15   8  73 CALM      30.50R HAZE             
PRAIRIE DU CHI FAIR      18  10  70 CALM      30.51R                  
PLATTEVILLE    FAIR      19  13  78 CALM      30.48R                  
$$

WIZ056-057-062-063-064-067-068-190200-
SOUTH CENTRAL WISCONSIN
  
CITY           SKY/WX    TMP DP  RH WIND       PRES   REMARKS
REEDSBURG      FAIR      16   9  73 CALM      30.47R                  
BARABOO/DELLS  FAIR      15   6  70 CALM      30.47R                  
LONE ROCK      FAIR      10   6  84 CALM      30.49R                  
MINERAL POINT  FAIR      21  14  73 CALM      30.45R                  
MADISON        FAIR      14   7  73 CALM      30.48R                  
MIDDLETON      FAIR       5   1  84 CALM      30.47R                  
WATERTOWN      FAIR       8   6  89 CALM      30.48R                  
MONROE         FAIR      19  10  69 MISG      30.47R                  
JANESVILLE     PTCLDY    16   9  73 CALM      30.49R                  
$$
 
WIZ051-052-058>065-066-070>072-190200-
SOUTHEAST WISCONSIN
  
CITY           SKY/WX    TMP DP  RH WIND       PRES   REMARKS
MILWAUKEE      FAIR      22   8  55 N8        30.48R WCI  12          
WAUKESHA       CLEAR     14   7  73 CALM      30.48R                  
MILWAUKEE/TIMM CLEAR     16   7  67 CALM      30.49R                  
RACINE         FAIR      23  15  71 CALM      30.50R                  
KENOSHA        FAIR      17  10  74 CALM      30.48R                  
FOND DU LAC    FAIR       7   2  80 S5        30.48R WCI  -2          
SHEBOYGAN      FAIR       1  -1  91 CALM      30.48R                  
WEST BEND      FAIR      16   9  73 CALM      30.48R                  
JUNEAU         FAIR      14   8  75 CALM      30.48R                  
$$

LSZ147-162-190200-
LAKE SUPERIOR
  
STATION/POSITION TIME  TEMP    WIND        PRES    WAVE
                       AIR SEA DIR/SP/G            HT/PER
                 (UTC) (F)     (DEG/KT/KT) (MB)    (FT/S)
DEVILS ISLAND    0000   13     180/  4/  4 1033.3F
SAXON HARBOR     0040    4     190/  4/  4 1032.2R
$$
 
LMZ867-665-643>646-190200-
LAKE MICHIGAN
  
STATION/POSITION TIME  TEMP    WIND        PRES    WAVE
                       AIR SEA DIR/SP/G            HT/PER
                 (UTC) (F)     (DEG/KT/KT) (MB)    (FT/S)
CHAMBERS ISLAND  2340   14      80/  4/  5 1030.8R
NORTHPORT PIER   0040   15      20/  3/  3 1032.2R
KEWAUNEE LAKESHO 0024   16     270/  2/  3 1030.9
SHEBOYGAN LAKESH 0000   21     340/  5/  6 1033.1R
PORT WASHINGTON  0030   19     320/  3/  4 1033.5R
MILWAUKEE LAKESH 0030   23     320/  5/  8   N/A
KENOSHA   LAKESH 0000   24     350/  6/  7 1031.8
$$

TC  - TEMPERATURE IN CELSIUS
VSB - VISIBILITY IN STATUTE MILES
WCI - WIND CHILL INDEX
HX  - HEAT INDEX